Location: *
(40.7873°S, 98.7174°E)
Time: 01:29:19
(UTC+00:00)

NOAA 17 DEB - Visible Passes

Search period start: 03 February 2023 00:00
Search period end: 13 February 2023 00:00
Orbit: 718 x 783 km, 98.7° (Epoch: 01 February)

Date Brightness Start Highest point End Pass type
(mag) Time Alt. Az. Time Alt. Az. Time Alt. Az.
03 Feb ? 19:13:04 22° ENE 19:15:18 32° ESE 19:19:50 10° S visible
03 Feb ? 20:52:58 29° WNW 20:53:53 31° W 20:58:27 10° SW visible
04 Feb ? 18:32:06 10° E 18:34:44 14° ESE 18:37:22 10° SSE visible
04 Feb ? 20:11:29 53° N 20:12:40 77° WNW 20:17:52 10° SSW visible
05 Feb ? 19:29:59 33° ENE 19:31:42 44° ESE 19:36:37 10° S visible
05 Feb ? 21:09:53 21° WNW 21:10:32 22° W 21:14:31 10° SW visible
06 Feb ? 18:48:29 14° E 18:51:00 20° ESE 18:54:38 10° SSE visible
06 Feb ? 20:28:22 48° NW 20:29:11 54° W 20:34:18 10° SSW visible
07 Feb ? 19:46:52 47° NE 19:48:06 63° ESE 19:53:15 10° S visible
07 Feb ? 21:26:46 15° W 21:27:10 15° W 21:30:11 10° SW visible
08 Feb ? 19:05:20 21° E 19:07:15 27° ESE 19:11:34 10° S visible
08 Feb ? 20:45:14 37° WNW 20:45:42 38° W 20:50:32 10° SSW visible
09 Feb ? 18:24:50 10° E 18:26:41 12° ESE 18:28:32 10° SE visible
09 Feb ? 20:03:41 65° NNE 20:04:28 88° ESE 20:09:43 10° SSW visible
09 Feb ? 21:43:34 10° W 21:43:48 10° W 21:44:38 10° WSW visible
10 Feb ? 19:22:08 31° E 19:23:30 37° ESE 19:28:16 10° S visible
10 Feb ? 21:02:01 27° W 21:02:11 27° W 21:06:34 10° SW visible
11 Feb ? 18:40:34 13° E 18:42:47 17° ESE 18:45:59 10° SSE visible
11 Feb ? 20:20:27 64° NW 20:20:50 66° WNW 20:26:03 10° SSW visible
12 Feb ? 19:38:53 46° ENE 19:39:44 51° ESE 19:44:48 10° S visible
12 Feb ? 21:18:46 19° W 21:18:46 19° W 21:22:19 10° SW visible
